Weather History for Chicopee, MA

Change the Weather History Date:

Tuesday, October 16, 2012

  Actual Average Record
Temperature  
Mean Temperature 50 °F -  
Max Temperature 57 °F 58 °F 71 °F (1996)
Min Temperature 38 °F 37 °F 26 °F (2006)
Degree Days  
Heating Degree Days 16    
Moisture  
Dew Point 38 °F    
Average Humidity 63    
Maximum Humidity 93    
Minimum Humidity 44    
Precipitation  
Precipitation 0.00 in - - ()
Sea Level Pressure  
Sea Level Pressure 29.74 in    
Wind  
Wind Speed 10 mph (NW)    
Max Wind Speed 20 mph    
Max Gust Speed 29 mph    
Visibility 10 miles    
Events      
Averages and records for this station are not official NWS values.
T = Trace of Precipitation, MM = Missing Value Source: NWS Daily Summary

Daily Weather History Graph

Daily Weather History Graph

Search for Another Location

Airport:

Trip Planner

Search our weather history database for the weather conditions in past years. The results will help you decide how hot, cold, wet, or windy it might be!

Date:

Astronomy

Oct. 16, 2012 Rise Set
Actual Time 7:04 AM EDT 6:05 PM EDT
Civil Twilight 6:36 AM EDT 6:34 PM EDT
Nautical Twilight 6:03 AM EDT 7:06 PM EDT
Astronomical Twilight 5:31 AM EDT 7:39 PM EDT
Moon 8:26 AM EDT (10/16) 6:45 PM EDT (10/16)
Length of Visible Light 11h 58m
Length of Day
11h 01m
New Moon, 2% of the Moon is Illuminated
Oct 16
New Moon
Oct 21
First Quarter
Oct 29
Full
Nov 6
Last Quarter
Nov 13
New

Hourly Weather History & Observations

Time (EDT) Temp. Windchill Dew Point Humidity Pressure Visibility Wind Dir Wind Speed Gust Speed Precip Events Conditions
12:55 AM 57.2 °F - 55.2 °F 93% 29.64 in 10.0 mi NNW 6.9 mph - N/A   Overcast
1:55 AM 55.4 °F - 50.5 °F 84% 29.66 in 10.0 mi NNW 5.8 mph - N/A   Overcast
2:55 AM 54.3 °F - 46.8 °F 76% 29.65 in 10.0 mi Variable 3.5 mph - N/A   Overcast
3:55 AM 53.4 °F - 44.4 °F 72% 29.62 in 10.0 mi North 10.4 mph - N/A   Overcast
4:55 AM 52.2 °F - 42.8 °F 70% 29.63 in 10.0 mi Variable 6.9 mph - N/A   Overcast
5:55 AM 49.5 °F - 39.2 °F 68% 29.65 in 10.0 mi NNW 9.2 mph - N/A   Overcast
6:55 AM 47.5 °F - 35.6 °F 63% 29.68 in 10.0 mi NW 15.0 mph 23.0 mph N/A   Clear
7:55 AM 47.1 °F - 34.9 °F 62% 29.71 in 10.0 mi WNW 10.4 mph - N/A   Mostly Cloudy
8:55 AM 48.2 °F - 34.9 °F 60% 29.73 in 10.0 mi WNW 19.6 mph 25.3 mph N/A   Mostly Cloudy
9:55 AM 49.3 °F - 34.0 °F 56% 29.73 in 10.0 mi WNW 18.4 mph 26.5 mph N/A   Mostly Cloudy
10:55 AM 50.7 °F - 33.6 °F 52% 29.74 in 10.0 mi NW 19.6 mph 25.3 mph N/A   Mostly Cloudy
11:55 AM 51.1 °F - 33.3 °F 51% 29.73 in 10.0 mi NW 18.4 mph 28.8 mph N/A   Mostly Cloudy
12:55 PM 54.0 °F - 33.6 °F 46% 29.72 in 10.0 mi NW 17.3 mph 24.2 mph N/A   Clear
1:55 PM 54.5 °F - 33.6 °F 45% 29.72 in 10.0 mi NW 15.0 mph 23.0 mph N/A   Clear
2:55 PM 55.9 °F - 34.0 °F 44% 29.73 in 10.0 mi WNW 13.8 mph 18.4 mph N/A   Clear
3:55 PM 56.5 °F - 34.7 °F 44% 29.74 in 10.0 mi WNW 15.0 mph 20.7 mph N/A   Clear
4:55 PM 54.5 °F - 34.3 °F 47% 29.75 in 10.0 mi NW 13.8 mph - N/A   Clear
5:55 PM 51.8 °F - 35.8 °F 54% 29.78 in 10.0 mi Variable 6.9 mph - N/A   Clear
6:55 PM 49.1 °F - 36.0 °F 61% 29.81 in 10.0 mi West 9.2 mph - N/A   Clear
7:55 PM 47.1 °F - 36.0 °F 65% 29.83 in 10.0 mi West 8.1 mph - N/A   Clear
8:55 PM 46.0 °F 41.9 °F 35.2 °F 66% 29.86 in 10.0 mi West 8.1 mph - N/A   Clear
9:55 PM 43.0 °F 40.3 °F 34.9 °F 73% 29.88 in 10.0 mi WSW 4.6 mph - N/A   Clear
10:55 PM 42.1 °F - 35.4 °F 77% 29.89 in 10.0 mi Calm Calm - N/A   Clear
11:55 PM 38.3 °F 34.8 °F 33.6 °F 83% 29.91 in 10.0 mi WNW 4.6 mph - N/A   Clear